Total_Precipitation_Accumulation
0.13 0.17 0.25 0.35 0.41 0.47 0.54 0.60 0.68 0.78 0.90 1.01 1.05 1.02 1.10 1.10 1.02 0.97 0.98 0.97 0.94 0.87 0.79 0.71 0.64 0.65 0.63 0.59 0.53 0.49 0.49 0.47 0.46 0.48 0.46 0.43 0.40 0.37 0.35 0.39 0.51 0.62 0.64
0.16 0.18 0.26 0.37 0.41 0.43 0.51 0.58 0.61 0.69 0.75 0.79 0.89 0.94 0.95 0.99 1.01 0.97 0.97 1.01 1.00 0.91 0.86 0.81 0.73 0.64 0.62 0.61 0.59 0.54 0.50 0.47 0.41 0.45 0.51 0.46 0.42 0.40 0.32 0.28 0.36 0.45 0.53
0.16 0.16 0.22 0.34 0.39 0.42 0.49 0.56 0.61 0.63 0.71 0.79 0.92 1.00 1.06 1.07 1.04 0.99 0.93 0.93 0.97 0.96 0.88 0.82 0.79 0.75 0.69 0.63 0.60 0.58 0.56 0.54 0.47 0.42 0.57 0.63 0.46 0.33 0.24 0.23 0.26 0.29 0.33
0.16 0.17 0.20 0.29 0.36 0.39 0.49 0.57 0.65 0.72 0.73 0.81 0.91 0.89 0.88 0.87 0.81 0.83 0.83 0.87 0.90 0.92 0.90 0.86 0.83 0.77 0.72 0.65 0.60 0.60 0.60 0.62 0.61 0.53 0.49 0.51 0.49 0.52 0.37 0.20 0.19 0.19 0.20
0.14 0.15 0.17 0.25 0.33 0.40 0.50 0.58 0.62 0.74 0.79 0.80 0.88 0.87 0.81 0.78 0.80 0.85 0.89 0.88 0.89 0.92 0.87 0.84 0.82 0.79 0.73 0.68 0.65 0.61 0.63 0.66 0.66 0.62 0.55 0.51 0.44 0.44 0.55 0.36 0.22 0.21 0.20
0.16 0.17 0.17 0.23 0.31 0.38 0.48 0.54 0.61 0.71 0.81 0.81 0.86 0.85 0.81 0.78 0.83 0.87 0.94 0.94 0.94 0.97 0.94 0.85 0.83 0.77 0.69 0.66 0.69 0.67 0.63 0.63 0.64 0.62 0.60 0.63 0.62 0.52 0.55 0.50 0.30 0.26 0.25
0.22 0.22 0.19 0.22 0.27 0.36 0.45 0.52 0.56 0.69 0.78 0.79 0.81 0.83 0.80 0.77 0.80 0.84 0.89 0.92 0.94 0.97 0.98 0.92 0.86 0.81 0.73 0.64 0.66 0.71 0.71 0.68 0.69 0.68 0.64 0.62 0.61 0.58 0.63 0.67 0.52 0.38 0.29
0.22 0.24 0.20 0.22 0.27 0.34 0.40 0.49 0.54 0.63 0.76 0.76 0.76 0.79 0.79 0.77 0.77 0.81 0.83 0.87 0.83 0.84 0.90 0.96 0.96 0.87 0.80 0.75 0.71 0.72 0.71 0.72 0.74 0.71 0.69 0.67 0.60 0.61 0.69 0.79 0.86 0.76 0.46
0.16 0.24 0.22 0.25 0.29 0.36 0.39 0.46 0.55 0.63 0.76 0.81 0.77 0.78 0.80 0.79 0.73 0.77 0.80 0.87 0.85 0.77 0.80 0.90 0.98 1.00 0.93 0.86 0.82 0.80 0.74 0.73 0.77 0.78 0.79 0.79 0.71 0.65 0.65 0.72 0.92 1.17 0.96
0.15 0.19 0.19 0.24 0.31 0.36 0.38 0.42 0.54 0.61 0.70 0.80 0.81 0.83 0.84 0.83 0.78 0.78 0.78 0.78 0.83 0.85 0.81 0.82 0.87 0.94 0.98 0.98 0.93 0.91 0.85 0.83 0.82 0.84 0.87 0.89 0.86 0.83 0.78 0.75 0.79 0.97 1.14
0.15 0.18 0.18 0.23 0.30 0.35 0.36 0.40 0.47 0.59 0.69 0.75 0.78 0.83 0.92 0.90 0.88 0.86 0.80 0.76 0.77 0.84 0.87 0.87 0.91 0.94 0.95 0.97 1.02 1.02 0.98 0.96 0.93 0.90 0.92 0.92 0.95 1.02 1.01 0.97 0.94 0.91 1.00
0.16 0.16 0.17 0.21 0.27 0.32 0.35 0.41 0.46 0.51 0.63 0.74 0.77 0.79 0.90 0.97 0.94 0.99 0.96 0.86 0.78 0.80 0.86 0.91 0.93 1.01 1.04 1.02 1.06 1.10 1.10 1.14 1.11 1.02 0.99 0.98 0.99 1.05 1.08 1.15 1.13 1.03 0.97
0.19 0.17 0.17 0.19 0.25 0.29 0.35 0.39 0.44 0.47 0.56 0.71 0.76 0.80 0.85 0.94 0.95 0.98 1.04 1.03 1.00 1.02 1.01 1.05 1.09 1.13 1.18 1.21 1.23 1.25 1.30 1.35 1.34 1.28 1.23 1.13 1.10 1.15 1.13 1.17 1.19 1.13 1.05
0.19 0.17 0.17 0.18 0.23 0.29 0.34 0.36 0.38 0.45 0.53 0.68 0.80 0.82 0.85 0.87 0.91 0.96 1.00 1.12 1.20 1.28 1.34 1.32 1.32 1.33 1.39 1.52 1.60 1.59 1.58 1.55 1.50 1.46 1.43 1.36 1.28 1.27 1.26 1.28 1.23 1.18 1.19
0.17 0.16 0.17 0.19 0.22 0.27 0.31 0.32 0.34 0.40 0.50 0.64 0.74 0.81 0.87 0.96 1.03 1.05 1.08 1.12 1.25 1.34 1.36 1.40 1.42 1.40 1.57 1.88 2.00 1.85 1.64 1.51 1.44 1.39 1.37 1.41 1.49 1.49 1.52 1.59 1.48 1.38 1.42
0.18 0.17 0.18 0.20 0.23 0.26 0.30 0.29 0.30 0.37 0.46 0.62 0.69 0.76 0.90 1.01 1.13 1.16 1.21 1.22 1.28 1.37 1.38 1.36 1.38 1.36 1.47 1.88 2.00 1.64 1.32 1.25 1.30 1.30 1.22 1.21 1.37 1.43 1.50 1.62 1.62 1.63 1.68
0.18 0.17 0.19 0.23 0.25 0.26 0.27 0.28 0.30 0.34 0.40 0.53 0.64 0.71 0.85 0.97 1.06 1.09 1.13 1.17 1.12 1.11 1.20 1.27 1.22 1.19 1.27 1.62 1.72 1.42 1.02 0.93 1.02 1.07 1.06 1.04 1.10 1.28 1.25 1.33 1.38 1.46 1.59
0.17 0.17 0.18 0.19 0.22 0.25 0.27 0.27 0.28 0.32 0.39 0.47 0.60 0.64 0.74 0.87 0.93 0.99 1.04 1.05 0.99 0.97 1.08 1.11 1.03 0.95 1.00 1.32 1.47 1.27 0.91 0.85 0.91 0.95 0.96 0.94 0.95 1.11 1.29 1.33 1.22 1.14 1.25
0.16 0.17 0.17 0.16 0.17 0.22 0.25 0.26 0.27 0.30 0.35 0.41 0.51 0.58 0.66 0.81 0.82 0.88 0.98 0.98 0.99 0.96 0.94 0.94 0.89 0.82 0.83 1.10 1.39 1.27 0.88 0.90 0.91 0.91 0.97 0.92 0.86 1.13 1.32 1.31 1.21 1.09 1.09
0.16 0.17 0.17 0.15 0.16 0.18 0.20 0.22 0.23 0.26 0.33 0.40 0.47 0.51 0.57 0.70 0.71 0.72 0.79 0.84 0.86 0.89 0.90 0.87 0.82 0.80 0.76 0.94 1.31 1.35 0.94 0.92 0.89 0.89 0.95 1.07 1.05 1.20 1.27 1.19 1.21 1.23 1.08
0.21 0.19 0.18 0.18 0.18 0.19 0.20 0.21 0.21 0.23 0.29 0.35 0.40 0.46 0.51 0.57 0.60 0.64 0.67 0.72 0.76 0.81 0.85 0.85 0.79 0.72 0.73 0.81 1.09 1.43 1.17 0.97 0.89 0.90 0.95 0.98 1.13 1.17 1.23 1.25 1.23 1.33 1.17
0.25 0.22 0.22 0.21 0.20 0.20 0.20 0.18 0.20 0.23 0.26 0.32 0.38 0.43 0.48 0.50 0.54 0.58 0.64 0.66 0.74 0.83 0.86 0.84 0.82 0.75 0.71 0.77 0.96 1.23 1.33 1.17 0.97 0.92 0.82 0.85 1.02 1.06 1.16 1.18 1.23 1.27 1.22
0.25 0.24 0.24 0.25 0.23 0.22 0.21 0.19 0.19 0.22 0.27 0.33 0.37 0.43 0.47 0.45 0.53 0.60 0.67 0.70 0.76 0.85 0.87 0.83 0.81 0.79 0.77 0.84 1.03 1.05 1.10 1.19 1.06 1.00 1.02 0.94 0.99 1.02 1.00 1.04 1.14 1.15 1.08
0.23 0.21 0.23 0.25 0.26 0.24 0.22 0.20 0.19 0.23 0.27 0.32 0.36 0.42 0.49 0.50 0.50 0.57 0.65 0.70 0.75 0.89 0.94 0.91 0.88 0.80 0.79 0.91 1.13 1.08 1.01 1.10 1.10 1.08 1.06 1.03 1.03 1.02 0.97 0.98 0.98 0.95 0.99
0.24 0.22 0.22 0.23 0.24 0.23 0.21 0.19 0.20 0.25 0.29 0.32 0.35 0.41 0.51 0.55 0.52 0.54 0.60 0.67 0.70 0.91 1.08 1.01 1.01 0.99 1.00 1.09 1.30 1.31 1.24 1.25 1.26 1.26 1.23 1.15 1.11 1.09 1.01 0.94 0.89 0.90 0.96
0.24 0.23 0.21 0.22 0.22 0.20 0.19 0.20 0.21 0.26 0.33 0.37 0.40 0.44 0.52 0.55 0.54 0.54 0.58 0.67 0.70 0.77 0.82 0.90 0.99 0.97 1.08 1.14 1.11 1.18 1.23 1.25 1.30 1.33 1.28 1.09 0.98 0.96 0.91 0.89 0.88 0.85 0.84